Weather Roundup
Issued by NWS Chicago, IL

Home | Current Version | Previous Version | Graphics & Text | Print | Product List | Glossary On
Versions: 1 2 3 4 5 6 7 8 9 10 11 12 13 14 15 16 17 18 19 20 21 22 23 24 25 26 27 28 29 30 31 32 33 34 35 36 37 38 39 40 41 42 43 44 45 46 47 48 49 50
000
NZUS59 KLOT 152310
HRRLOT

CHICAGO AREA WEATHER ROUNDUP
NATIONAL WEATHER SERVICE CHICAGO/ROMEOVILLE IL
600 PM CDT TUE APR 15 2014

NOTE: "FAIR" INDICATES FEW OR NO CLOUDS BELOW 12,000 FEET WITH NO
SIGNIFICANT WEATHER AND/OR OBSTRUCTIONS TO VISIBILITY.

* THESE STATIONS ARE NOT UNDER NWS QUALITY CONTROL. THEY ALSO MAY NOT
  REPORT WEATHER SUCH AS PRECIPITATION OR FOG.

ILZ005-006-012>014-019>023-160000-
NORTHEAST ILLINOIS

CITY           SKY/WX    TMP DP  RH WIND       PRES   REMARKS
OHARE          PTSUNNY   38  16  40 W12       30.14R
MIDWAY         PTSUNNY   36  18  48 W9        30.15R
AURORA         CLOUDY    37  19  48 W7        30.15R
LANSING*       PTSUNNY   35  15  44 CALM      30.16R
JOLIET*        CLOUDY    36  17  46 W3        30.17R
WAUKEGAN       CLOUDY    30  18  60 E9        30.14R WCI  22
DUPAGE AIRPORT CLOUDY    37  18  46 NW9G25    30.14R
WHEELING       CLOUDY    38  20  48 NW7       30.16R
KANKAKEE*      PTSUNNY   37  20  51 W8        30.17S
MORRIS*        PTSUNNY   38  17  42 W7        30.16R
LEWIS AIRPORT* CLOUDY    36  20  52 W9        30.16R
NORTHERLY IS     N/A     32  21  64 E12         N/A  WCI  23
$$

WIZ051-052-058>065-066-070>072-160000-
SOUTHEAST WISCONSIN

CITY           SKY/WX    TMP DP  RH WIND       PRES   REMARKS
MILWAUKEE      PTSUNNY   31  18  58 SE14      30.14R WCI  21
KENOSHA*       PTSUNNY   31  20  63 SE15      30.13S WCI  20
RACINE*        CLOUDY    31  19  61 SE12      30.16R WCI  22
BURLINGTON     PTSUNNY   34  13  41 W8        30.12S WCI  27
WAUKESHA       PTSUNNY   32  14  47 W10       30.12S WCI  24
WEST BEND      PTSUNNY   32  12  43 NW10      30.11S WCI  24
$$

INZ001>003-010>013-019-020-160000-
NORTHWEST INDIANA

CITY           SKY/WX    TMP DP  RH WIND       PRES   REMARKS
GARY*          MOSUNNY   36  18  48 NE5       30.17R
MICHIGAN CITY* NOT AVBL
RENSSELAER*    NOT AVBL
VALPARAISO     MOSUNNY   33  12  41 W9        30.17R WCI  25
$$

LMZ740>746-160000-
SOUTHERN LAKE MICHIGAN

STATION/POSITION TIME  SKY/WX   TEMP WIND        PRES    VSBY
                                AIR  DIR/SP/G
                 (UTC)          (F)  (DEG/KT/KT) (MB)    (MI)
HARRISON CRIB    2300            30  110/ 15/ 17   N/A
BURNHAM HARBOR   2300            32  120/ 12/ 13   N/A
CALUMET HARBOR   2300            32   90/ 10/ 13 1022.1S
BURNS HARBOR     NOT AVBL
MICHIGAN CITY    2300            30   30/  6/  8   N/A
$$

ABBREVIATIONS USED IN REMARKS
   TC - TEMPERATURE IN CELSIUS
  WCI - WIND CHILL INDEX
   HX - HEAT INDEX
  VSB - VISIBILITY
$$


USA.gov is the U.S. government's official web portal to all federal, state and local government web resources and services.